Waarnemingen

Advertentie
Mijn weer
Ile Rousse, Frankrijk (7753): temperatuur & dauwpunt: 09.10.2019 21:00:00 - 15.10.2019 21:00:00 (CEST)Ile Rousse, Frankrijk (7753): windsnelheid & windstoten: 09.10.2019 21:00:00 - 15.10.2019 21:00:00 (CEST)Ile Rousse, Frankrijk (7753): windrichting: 09.10.2019 21:00:00 - 15.10.2019 21:00:00 (CEST)Ile Rousse, Frankrijk (7753): luchtdruk: 09.10.2019 21:00:00 - 15.10.2019 21:00:00 (CEST)Ile Rousse, Frankrijk (7753): zicht: 09.10.2019 21:00:00 - 15.10.2019 21:00:00 (CEST)Ile Rousse, Frankrijk (7753): neerslag: 09.10.2019 21:00:00 - 15.10.2019 21:00:00 (CEST)
Datum & Tijd tt [°C] td [°C] ff [km/u] ff [kn] fx [km/u] fx [kn] dd ppp [hPa] vv [km] rr [mm]
15.10.2019 21:00:00 17,3 10,9 50 27 81 44 WZW 1012,3 - 0,0
15.10.2019 20:00:00 17,7 10,6 52 28 88 48 WZW 1011,9 15 0,0
15.10.2019 19:00:00 17,9 12,3 53 28 82 44 WZW 1010,9 - 0,0
15.10.2019 18:00:00 19,7 12,9 41 22 68 37 WZW 1011,0 - 0,0
15.10.2019 17:00:00 19,5 14,5 44 24 67 36 ZW 1010,9 - 0,0
15.10.2019 16:00:00 18,7 17,7 31 17 57 31 WZW 1011,6 - 0,4
15.10.2019 15:00:00 17,8 17,2 29 16 69 37 W 1011,1 - 7,1
15.10.2019 14:00:00 22,2 17,1 4 2 15 8 Z 1010,8 - 0,2
15.10.2019 13:00:00 22,7 16,9 6 4 14 7 W 1011,1 - 0,2
15.10.2019 12:00:00 22,9 15,5 10 5 19 10 W 1011,6 - 0,0
15.10.2019 11:00:00 22,8 15,1 9 5 27 14 W 1011,2 18 0,0
15.10.2019 10:00:00 23,2 13,9 13 7 24 13 ZZW 1011,6 - 0,0
15.10.2019 09:00:00 21,6 14,7 10 5 14 7 ZZO 1012,0 - 0,0
15.10.2019 08:00:00 19,9 16,3 6 4 25 14 O 1012,3 20 0,0
15.10.2019 07:00:00 19,7 16,0 23 13 28 15 O 1012,2 - 0,0
15.10.2019 06:00:00 20,2 15,4 20 11 34 18 W 1012,6 - 0,0
15.10.2019 05:00:00 23,4 12,1 9 5 18 10 Z 1012,2 20 0,0
15.10.2019 04:00:00 22,4 12,6 3 2 15 8 NO 1013,0 - 0,0
15.10.2019 03:00:00 22,3 12,5 7 4 11 6 Z 1013,8 - 0,0
15.10.2019 02:00:00 23,0 13,7 3 2 9 5 ZW 1014,3 - 0,0
15.10.2019 01:00:00 23,9 12,8 8 5 15 8 Z 1014,6 - 0,0
15.10.2019 00:00:00 24,0 12,6 8 4 13 7 Z 1015,2 - 0,0
14.10.2019 23:00:00 23,3 14,0 8 4 10 5 ZO 1015,4 - 0,0
14.10.2019 22:00:00 22,5 15,6 3 2 5 3 O 1015,5 - 0,0
14.10.2019 21:00:00 23,3 16,3 4 2 8 4 N 1015,4 - 0,0
14.10.2019 20:00:00 23,8 15,8 2 1 15 8 WZW 1015,3 - 0,0
14.10.2019 19:00:00 23,7 16,7 7 4 11 6 WZW 1015,2 - 0,0
14.10.2019 18:00:00 26,0 17,9 2 1 7 4 W 1015,2 - 0,0
14.10.2019 17:00:00 25,0 17,2 3 2 14 7 NO 1015,8 20 0,0
14.10.2019 16:00:00 24,8 16,8 6 3 13 7 NO 1016,5 - 0,0
14.10.2019 15:00:00 25,9 13,4 3 1 16 9 O 1017,0 - 0,0
14.10.2019 14:00:00 24,2 11,8 8 5 17 9 NW 1017,5 25 0,0
14.10.2019 13:00:00 26,3 12,7 5 3 12 6 W 1018,1 - 0,0
14.10.2019 12:00:00 23,4 13,6 3 2 9 5 WZW 1018,6 - 0,0
14.10.2019 11:00:00 23,0 13,5 3 2 9 5 ZZO 1018,7 24 0,0
14.10.2019 10:00:00 21,8 10,6 2 1 9 5 N 1018,7 - 0,0
14.10.2019 09:00:00 20,9 10,7 0 0 5 3 N 1018,7 - 0,0
14.10.2019 08:00:00 21,1 10,3 5 3 7 4 WNW 1018,4 20 0,0
14.10.2019 07:00:00 21,3 10,1 5 3 6 3 WZW 1018,6 - 0,0
14.10.2019 06:00:00 20,8 10,0 0 0 6 3 N 1018,9 - 0,0
14.10.2019 05:00:00 22,2 9,7 5 3 8 4 ZZO 1018,9 20 0,0
14.10.2019 04:00:00 21,5 10,0 3 2 8 4 Z 1019,1 - 0,0
14.10.2019 03:00:00 21,4 10,2 5 3 11 6 Z 1019,3 - 0,0
14.10.2019 02:00:00 21,3 10,1 9 5 11 6 ZO 1019,8 - 0,0
14.10.2019 01:00:00 20,0 14,4 8 4 11 6 W 1020,0 - 0,0
14.10.2019 00:00:00 20,6 12,8 2 1 10 5 ZW 1019,9 - 0,0
13.10.2019 23:00:00 20,4 13,1 5 3 6 3 OZO 1020,0 - 0,0
13.10.2019 22:00:00 20,2 14,3 3 2 6 3 O 1019,9 - 0,0
13.10.2019 21:00:00 20,0 15,6 2 1 10 6 NNO 1019,9 - 0,0
13.10.2019 20:00:00 20,1 15,9 6 3 19 10 NW 1019,7 - 0,0
13.10.2019 19:00:00 19,6 17,0 13 7 18 10 WZW 1019,7 - 0,0
13.10.2019 18:00:00 21,5 16,7 14 7 22 12 ONO 1019,2 - 0,0
13.10.2019 17:00:00 22,2 16,5 8 5 29 16 ZZO 1019,7 20 0,0
13.10.2019 16:00:00 21,4 17,4 14 8 29 16 W 1020,1 - 0,0
13.10.2019 15:00:00 20,9 17,7 11 6 18 10 W 1020,2 - 0,0
13.10.2019 14:00:00 20,7 16,1 12 7 18 10 W 1020,5 14 0,0
13.10.2019 13:00:00 21,5 15,1 6 4 11 6 W 1020,9 - 0,0
13.10.2019 12:00:00 20,9 15,0 6 4 10 5 W 1021,1 - 0,0
13.10.2019 11:00:00 21,2 13,6 5 3 10 5 ONO 1020,9 28 0,0
13.10.2019 10:00:00 20,2 13,4 5 3 12 6 OZO 1021,2 - 0,0
13.10.2019 09:00:00 18,4 14,1 9 5 10 6 OZO 1021,1 - 0,0
13.10.2019 08:00:00 18,0 14,1 3 2 6 3 WZW 1020,8 - 0,0
13.10.2019 07:00:00 18,1 14,2 2 1 4 2 ZO 1020,8 - 0,0
13.10.2019 06:00:00 18,0 14,9 2 1 6 3 WZW 1020,9 - 0,0
13.10.2019 05:00:00 17,9 15,2 3 1 6 4 WZW 1021,1 - 0,0
13.10.2019 04:00:00 18,3 15,0 6 3 13 7 W 1021,3 - 0,0
13.10.2019 03:00:00 17,6 15,8 9 5 10 6 W 1021,7 - 0,0
13.10.2019 02:00:00 17,7 15,5 3 2 5 3 W 1021,9 - 0,0
13.10.2019 01:00:00 17,9 15,5 2 1 4 2 NNO 1021,9 - 0,0
13.10.2019 00:00:00 18,0 15,6 3 2 11 6 WNW 1022,3 - 0,0
12.10.2019 23:00:00 18,1 15,5 6 3 12 7 OZO 1022,2 - 0,0
12.10.2019 22:00:00 18,2 15,3 6 3 9 5 OZO 1022,3 - 0,0
12.10.2019 21:00:00 18,3 14,8 7 4 10 5 OZO 1022,3 - 0,0
12.10.2019 20:00:00 18,3 14,6 7 4 9 5 O 1022,2 - 0,0
12.10.2019 19:00:00 18,7 14,6 5 3 10 6 O 1022,0 - 0,0
12.10.2019 18:00:00 19,2 14,9 9 5 15 8 NO 1021,7 - 0,0
12.10.2019 17:00:00 19,7 15,1 11 6 16 9 NO 1021,9 - 0,0
12.10.2019 16:00:00 19,8 15,4 7 4 15 8 N 1022,4 - 0,0
12.10.2019 15:00:00 20,7 14,8 8 5 18 10 NNW 1022,3 - 0,0
12.10.2019 14:00:00 20,8 15,6 11 6 19 10 N 1022,4 15 0,0
12.10.2019 13:00:00 20,5 14,8 10 5 18 10 NNW 1023,0 - 0,0
12.10.2019 12:00:00 20,3 15,5 10 6 18 10 NW 1023,2 - 0,0
12.10.2019 11:00:00 19,7 15,6 9 5 17 9 WNW 1023,0 20 0,0
12.10.2019 10:00:00 18,3 15,0 5 3 10 6 W 1022,7 - 0,0
12.10.2019 09:00:00 17,4 14,9 6 4 13 7 WZW 1022,3 - 0,0
12.10.2019 08:00:00 17,3 14,8 8 4 9 5 WZW 1022,0 - 0,0
12.10.2019 07:00:00 17,4 14,3 3 1 5 3 WZW 1021,8 - 0,0
12.10.2019 06:00:00 17,7 14,4 3 1 5 3 NO 1021,8 - 0,0
12.10.2019 05:00:00 17,7 14,2 4 2 12 6 WNW 1022,0 - 0,0
12.10.2019 04:00:00 17,4 13,3 11 6 14 7 W 1021,9 - 0,0
12.10.2019 03:00:00 18,2 13,3 5 3 10 5 OZO 1022,0 - 0,0
12.10.2019 02:00:00 18,5 13,1 6 4 10 5 ZO 1022,4 - 0,0
12.10.2019 01:00:00 18,1 12,3 3 2 10 5 O 1022,5 - 0,0
12.10.2019 00:00:00 18,2 13,5 6 3 10 6 ZZO 1022,7 - 0,0
11.10.2019 23:00:00 18,7 12,7 3 2 5 3 NO 1022,7 - 0,0
11.10.2019 22:00:00 18,0 12,7 5 3 10 6 O 1022,2 - 0,0
11.10.2019 21:00:00 18,3 14,4 9 5 14 8 ZO 1021,9 - 0,0
11.10.2019 20:00:00 18,2 14,3 10 5 14 7 OZO 1021,6 - 0,0
11.10.2019 19:00:00 18,9 14,6 11 6 13 7 OZO 1021,5 - 0,0
11.10.2019 18:00:00 19,7 14,9 8 5 12 7 O 1021,7 - 0,0
11.10.2019 17:00:00 19,7 14,7 9 5 16 9 NNO 1021,6 25 0,0
11.10.2019 16:00:00 19,9 14,9 10 5 17 9 NNO 1021,8 - 0,0
11.10.2019 15:00:00 20,5 15,3 12 6 21 11 N 1022,1 - 0,0
11.10.2019 14:00:00 21,3 15,4 12 7 22 12 NW 1022,5 - 0,0
11.10.2019 13:00:00 20,8 14,9 11 6 20 11 NW 1022,7 - 0,0
11.10.2019 12:00:00 19,9 13,8 12 6 19 10 N 1022,8 - 0,0
11.10.2019 11:00:00 19,6 10,6 6 4 14 8 NNO 1022,3 25 0,0
11.10.2019 10:00:00 18,7 10,5 8 5 20 11 NO 1021,9 - 0,0
11.10.2019 09:00:00 18,0 10,8 15 8 21 12 O 1021,5 - 0,0
11.10.2019 08:00:00 17,1 10,7 16 9 23 13 O 1021,2 20 0,0
11.10.2019 07:00:00 16,9 9,6 16 9 22 12 O 1020,6 - 0,0
11.10.2019 06:00:00 17,4 9,8 17 9 22 12 O 1020,4 - 0,0
11.10.2019 05:00:00 17,0 8,2 11 6 14 8 O 1020,4 - 0,0
11.10.2019 04:00:00 17,0 9,7 8 5 12 7 OZO 1020,1 - 0,0
11.10.2019 03:00:00 17,1 10,2 10 5 20 11 O 1020,0 - 0,0
11.10.2019 02:00:00 17,4 10,7 14 7 18 10 O 1019,8 - 0,0
11.10.2019 01:00:00 17,4 9,8 11 6 12 6 O 1019,4 - 0,0
11.10.2019 00:00:00 17,6 9,2 4 2 12 7 ONO 1019,3 - 0,0
10.10.2019 23:00:00 18,0 9,9 11 6 15 8 ZZO 1018,9 - 0,0
10.10.2019 22:00:00 17,3 9,7 7 4 18 10 O 1018,3 - 0,0
10.10.2019 21:00:00 17,7 9,6 10 5 59 32 Z 1017,9 - 0,0
10.10.2019 20:00:00 17,5 11,3 32 18 61 33 ZW 1017,1 20 0,0
10.10.2019 19:00:00 17,8 11,8 39 21 78 42 WZW 1015,8 - 0,0
10.10.2019 18:00:00 18,8 12,1 49 26 84 45 WZW 1014,6 - 0,0
10.10.2019 17:00:00 19,5 12,0 51 28 88 48 WZW 1014,7 - 0,0
10.10.2019 16:00:00 20,0 11,5 51 28 89 48 WZW 1013,9 - 0,0
10.10.2019 15:00:00 20,3 12,0 53 29 90 48 W 1013,7 - 0,0
10.10.2019 14:00:00 21,5 12,3 45 24 97 52 W 1014,1 25 0,0
10.10.2019 13:00:00 22,2 6,0 59 32 99 53 WZW 1014,1 - 0,0
10.10.2019 12:00:00 20,5 12,2 59 32 109 59 WZW 1014,0 - 0,0
10.10.2019 11:00:00 21,1 9,7 59 32 101 55 WZW 1014,8 20 0,0
10.10.2019 10:00:00 21,6 5,1 50 27 84 45 WZW 1014,1 - 0,0
10.10.2019 09:00:00 20,5 4,9 41 22 79 42 ZW 1014,0 - 0,0
10.10.2019 08:00:00 19,8 6,9 45 25 77 42 WZW 1013,5 - 0,0
10.10.2019 07:00:00 19,0 11,3 42 23 85 46 WZW 1013,5 - 0,0
10.10.2019 06:00:00 19,2 10,7 43 23 74 40 WZW 1013,8 - 0,0
10.10.2019 05:00:00 19,3 10,0 41 22 77 42 WZW 1013,5 20 0,0
10.10.2019 04:00:00 19,9 10,3 37 20 73 39 WZW 1013,6 - 0,0
10.10.2019 03:00:00 20,0 13,0 40 22 74 40 WZW 1013,5 - 0,0
10.10.2019 02:00:00 20,1 13,8 38 20 80 43 WZW 1014,0 - 0,0
10.10.2019 01:00:00 20,6 14,0 49 27 79 43 ZW 1013,6 - 0,0
10.10.2019 00:00:00 20,6 14,5 36 20 61 33 ZW 1014,0 - 0,0
09.10.2019 23:00:00 20,6 15,2 33 18 69 37 WZW 1014,7 - 0,0
09.10.2019 22:00:00 21,0 14,6 46 25 75 41 WZW 1014,6 - 0,0
09.10.2019 21:00:00 21,1 15,0 45 25 80 43 ZW 1014,6 - 0,0

tt = temperatuur
td = dauwpunt
ff = windsnelheid
fx = windstoten
dd = windrichting
ppp = luchtdruk
vv = zicht
rr = neerslag

Weerstations in de omgeving